{"data":{"norad_id":56020,"epoch":"2026-05-24T20:51:15.703200Z","epoch_age_seconds":89848,"freshness":"FRESH","line1":"1 56020U 23042AL  26144.86893175  .00000897  00000+0  42106-4 0  9998","line2":"2 56020  43.0034 335.2174 0001607 253.4250 106.6426 15.27578502174682","mean_motion":15.27578502,"eccentricity":0.0001607,"inclination_deg":43.0034,"raan_deg":335.2174,"arg_perigee_deg":253.425,"mean_anomaly_deg":106.6426,"bstar":4.2106e-5,"rev_number":17468,"period_min":94.266841155113,"perigee_km":481.95098826776,"apogee_km":484.15617492068,"semimajor_km":6861.1905815942,"source":"CELESTRAK","updated_at":"2026-05-25T13:38:17.929075Z"}}